PRAKF SKRG-SKCL

Flight info

Callsign PRAKF
Flight time 0h 38m
Altitude 34000
Route RNG2B RNG DCT ISVON DCT MATRO DCT PEI DCT ULQ ULQ4E
Aircraft C700/M-SBDGHM1RWXY/LB2

Departure

Time 2026-04-26 18:58
Airport Jose Maria Córdova International Airport (SKRG)

Arrival

Time 2026-04-26 19:36
Airport Alfonso Bonilla Aragon International Airport (SKCL)
Time Latitude Longitude Altitude Speed Heading
2026-04-26 18:47 6.17457 -75.42971 7014 ft 0 kts 11°
2026-04-26 18:51 6.17456 -75.42972 7014 ft 3 kts 11°
2026-04-26 18:52 6.17436 -75.42976 7015 ft 3 kts 11°
2026-04-26 18:52 6.17424 -75.42978 7015 ft 0 kts 308°
2026-04-26 18:53 6.17411 -75.42990 7014 ft 5 kts 167°
2026-04-26 18:53 6.17396 -75.42941 7013 ft 13 kts 96°
2026-04-26 18:54 6.17376 -75.42815 7012 ft 24 kts 103°
2026-04-26 18:54 6.17293 -75.42639 7012 ft 33 kts 137°
2026-04-26 18:54 6.17174 -75.42617 7014 ft 21 kts 185°
2026-04-26 18:54 6.17039 -75.42598 7012 ft 19 kts 146°
2026-04-26 18:55 6.16947 -75.42523 7005 ft 11 kts 102°
2026-04-26 18:55 6.16980 -75.42498 7002 ft 4 kts 329°
2026-04-26 18:55 6.16978 -75.42512 6998 ft 4 kts 187°
2026-04-26 18:55 6.16875 -75.42499 7001 ft 26 kts 172°
2026-04-26 18:56 6.16621 -75.42484 6985 ft 43 kts 180°
2026-04-26 18:56 6.16331 -75.42481 6976 ft 36 kts 178°
2026-04-26 18:56 6.16263 -75.42423 6974 ft 6 kts 96°
2026-04-26 18:56 6.16262 -75.42420 6974 ft 2 kts 95°
2026-04-26 18:57 6.16273 -75.42334 6974 ft 16 kts 56°
2026-04-26 18:57 6.16314 -75.42311 6975 ft 0 kts 359°
2026-04-26 18:57 6.16601 -75.42310 6985 ft 80 kts 360°
2026-04-26 18:57 6.17312 -75.42314 7015 ft 120 kts
2026-04-26 18:58 6.18263 -75.42302 7280 ft 154 kts
2026-04-26 18:58 6.19443 -75.42194 7922 ft 183 kts 12°
2026-04-26 18:58 6.20723 -75.41775 8594 ft 209 kts 24°
2026-04-26 18:58 6.22082 -75.41022 9496 ft 235 kts 33°
2026-04-26 18:59 6.23405 -75.39997 10537 ft 245 kts 42°
2026-04-26 18:59 6.24534 -75.38680 11574 ft 252 kts 61°
2026-04-26 18:59 6.24931 -75.36966 12621 ft 256 kts 95°
2026-04-26 18:59 6.24334 -75.35310 13710 ft 261 kts 128°
2026-04-26 19:00 6.22909 -75.34190 14785 ft 265 kts 159°
2026-04-26 19:00 6.21118 -75.33796 15884 ft 260 kts 174°
2026-04-26 19:00 6.19391 -75.33641 16876 ft 243 kts 176°
2026-04-26 19:00 6.17694 -75.33525 17817 ft 247 kts 176°
2026-04-26 19:01 6.15973 -75.33504 18766 ft 250 kts 187°
2026-04-26 19:01 6.14240 -75.33816 19658 ft 255 kts 196°
2026-04-26 19:01 6.12585 -75.34474 20592 ft 259 kts 208°
2026-04-26 19:01 6.11059 -75.35445 21550 ft 261 kts 212°
2026-04-26 19:02 6.09494 -75.36371 22518 ft 262 kts 206°
2026-04-26 19:02 6.07841 -75.37147 23487 ft 262 kts 203°
2026-04-26 19:02 6.06163 -75.37906 24161 ft 273 kts 204°
2026-04-26 19:02 6.04997 -75.38466 24436 ft 286 kts 205°
2026-04-26 19:03 6.02489 -75.39699 24993 ft 314 kts 205°
2026-04-26 19:03 6.00460 -75.40678 25421 ft 334 kts 204°
2026-04-26 19:03 5.98299 -75.41705 25857 ft 353 kts 202°
2026-04-26 19:03 5.95941 -75.42574 26294 ft 370 kts 198°
2026-04-26 19:04 5.93438 -75.43426 26738 ft 388 kts 198°
2026-04-26 19:04 5.90829 -75.44342 27184 ft 405 kts 198°
2026-04-26 19:04 5.88117 -75.45298 27623 ft 421 kts 198°
2026-04-26 19:04 5.85291 -75.46279 27959 ft 439 kts 198°
2026-04-26 19:05 5.79291 -75.48361 28480 ft 464 kts 198°
2026-04-26 19:05 5.76243 -75.49429 29430 ft 465 kts 198°
2026-04-26 19:05 5.73166 -75.50499 30178 ft 471 kts 198°
2026-04-26 19:06 5.70060 -75.51576 30892 ft 475 kts 198°
2026-04-26 19:06 5.66917 -75.52669 31588 ft 479 kts 198°
2026-04-26 19:06 5.63750 -75.53774 32259 ft 483 kts 198°
2026-04-26 19:06 5.60563 -75.54883 32872 ft 487 kts 198°
2026-04-26 19:07 5.57337 -75.56004 33470 ft 491 kts 198°
2026-04-26 19:07 5.54072 -75.57138 33647 ft 499 kts 198°
2026-04-26 19:07 5.50846 -75.58262 33643 ft 483 kts 198°
2026-04-26 19:07 5.47737 -75.59346 33656 ft 464 kts 198°
2026-04-26 19:08 5.44719 -75.60394 33648 ft 459 kts 198°
2026-04-26 19:08 5.38611 -75.62514 33655 ft 467 kts 198°
2026-04-26 19:09 5.32513 -75.64644 33675 ft 465 kts 198°
2026-04-26 19:09 5.26401 -75.66772 33718 ft 465 kts 198°
2026-04-26 19:10 5.20305 -75.68897 33754 ft 464 kts 198°
2026-04-26 19:10 5.14212 -75.71019 33763 ft 463 kts 198°
2026-04-26 19:11 5.08103 -75.73153 33765 ft 466 kts 198°
2026-04-26 19:11 5.01968 -75.75298 33695 ft 466 kts 198°
2026-04-26 19:12 4.95860 -75.77431 33709 ft 463 kts 198°
2026-04-26 19:12 4.89767 -75.79560 33722 ft 464 kts 198°
2026-04-26 19:13 4.83646 -75.81697 33730 ft 467 kts 198°
2026-04-26 19:13 4.77566 -75.83977 33726 ft 466 kts 205°
2026-04-26 19:14 4.71916 -75.87135 33819 ft 464 kts 208°
2026-04-26 19:14 4.69086 -75.88713 33929 ft 468 kts 208°
2026-04-26 19:14 4.66232 -75.90311 33936 ft 469 kts 208°
2026-04-26 19:15 4.60579 -75.93501 33932 ft 464 kts 208°
2026-04-26 19:15 4.54967 -75.96646 33930 ft 465 kts 208°
2026-04-26 19:16 4.49307 -75.99830 33956 ft 467 kts 208°
2026-04-26 19:16 4.43616 -76.03024 33961 ft 468 kts 208°
2026-04-26 19:17 4.37948 -76.06209 33960 ft 466 kts 208°
2026-04-26 19:17 4.32300 -76.09379 33959 ft 465 kts 208°
2026-04-26 19:18 4.26630 -76.12563 33964 ft 468 kts 208°
2026-04-26 19:18 4.20943 -76.15755 33975 ft 468 kts 208°
2026-04-26 19:19 4.15279 -76.18934 33981 ft 465 kts 208°
2026-04-26 19:19 4.10512 -76.21393 33992 ft 464 kts 200°
2026-04-26 19:19 4.06344 -76.22556 34001 ft 466 kts 189°
2026-04-26 19:20 4.04221 -76.22823 34006 ft 466 kts 185°
2026-04-26 19:20 3.97748 -76.23440 34015 ft 467 kts 185°
2026-04-26 19:21 3.91302 -76.24072 34014 ft 463 kts 185°
2026-04-26 19:21 3.84880 -76.24688 34015 ft 465 kts 185°
2026-04-26 19:22 3.78401 -76.25318 33779 ft 471 kts 185°
2026-04-26 19:22 3.75144 -76.25632 33225 ft 469 kts 185°
2026-04-26 19:22 3.71898 -76.25946 32523 ft 468 kts 185°
2026-04-26 19:22 3.68660 -76.26260 31849 ft 466 kts 184°
2026-04-26 19:23 3.65428 -76.26626 31184 ft 467 kts 186°
2026-04-26 19:23 3.62243 -76.27030 30692 ft 470 kts 186°
2026-04-26 19:23 3.58936 -76.27434 30313 ft 473 kts 186°
2026-04-26 19:23 3.55700 -76.27831 29869 ft 477 kts 186°
2026-04-26 19:24 3.52345 -76.28252 29300 ft 480 kts 186°
2026-04-26 19:24 3.49077 -76.28712 28711 ft 482 kts 189°
2026-04-26 19:24 3.42493 -76.30170 27387 ft 486 kts 191°
2026-04-26 19:25 3.39373 -76.30860 26539 ft 436 kts 191°
2026-04-26 19:25 3.37464 -76.31279 25942 ft 413 kts 191°
2026-04-26 19:25 3.34158 -76.32671 24685 ft 367 kts 218°
2026-04-26 19:25 3.32637 -76.34577 23775 ft 338 kts 245°
2026-04-26 19:26 3.32194 -76.36766 22754 ft 311 kts 274°
2026-04-26 19:26 3.32828 -76.38735 21729 ft 291 kts 305°
2026-04-26 19:26 3.34288 -76.40021 20766 ft 275 kts 330°
2026-04-26 19:26 3.35983 -76.40801 19862 ft 263 kts 346°
2026-04-26 19:27 3.37767 -76.40735 18958 ft 258 kts 20°
2026-04-26 19:27 3.39148 -76.39676 18080 ft 257 kts 56°
2026-04-26 19:27 3.39681 -76.37941 17150 ft 263 kts 92°
2026-04-26 19:27 3.39144 -76.36258 16257 ft 252 kts 128°
2026-04-26 19:28 3.37773 -76.35255 15406 ft 244 kts 163°
2026-04-26 19:28 3.36130 -76.35027 14624 ft 236 kts 186°
2026-04-26 19:28 3.34553 -76.35438 13847 ft 231 kts 200°
2026-04-26 19:28 3.33015 -76.35905 12992 ft 227 kts 192°
2026-04-26 19:29 3.31491 -76.36165 12178 ft 224 kts 187°
2026-04-26 19:29 3.29957 -76.36378 11372 ft 221 kts 188°
2026-04-26 19:29 3.28423 -76.36627 10613 ft 219 kts 191°
2026-04-26 19:29 3.27046 -76.37202 9839 ft 217 kts 220°
2026-04-26 19:30 3.26151 -76.38383 9015 ft 215 kts 249°
2026-04-26 19:30 3.25931 -76.39777 8263 ft 212 kts 276°
2026-04-26 19:30 3.26405 -76.41152 7502 ft 209 kts 304°
2026-04-26 19:30 3.27052 -76.41856 7016 ft 207 kts 323°
2026-04-26 19:31 3.28822 -76.42484 6045 ft 204 kts 359°
2026-04-26 19:31 3.30169 -76.42308 5290 ft 188 kts 12°
2026-04-26 19:31 3.31416 -76.42038 4782 ft 176 kts 10°
2026-04-26 19:31 3.32581 -76.41838 4801 ft 169 kts
2026-04-26 19:32 3.33806 -76.41630 4793 ft 182 kts
2026-04-26 19:32 3.34961 -76.41426 4802 ft 183 kts
2026-04-26 19:32 3.36226 -76.41216 4786 ft 185 kts
2026-04-26 19:32 3.37489 -76.41011 4785 ft 184 kts
2026-04-26 19:33 3.38753 -76.40806 4789 ft 184 kts
2026-04-26 19:33 3.40000 -76.40603 4786 ft 184 kts
2026-04-26 19:33 3.41286 -76.40394 4783 ft 185 kts
2026-04-26 19:33 3.42542 -76.40188 4787 ft 184 kts
2026-04-26 19:34 3.43819 -76.39980 4779 ft 184 kts
2026-04-26 19:34 3.45083 -76.39776 4778 ft 184 kts
2026-04-26 19:34 3.46344 -76.39570 4775 ft 186 kts
2026-04-26 19:34 3.47632 -76.39361 4782 ft 185 kts
2026-04-26 19:35 3.48878 -76.39128 4711 ft 173 kts 10°
2026-04-26 19:35 3.50025 -76.38894 4169 ft 168 kts
2026-04-26 19:35 3.51150 -76.38696 3768 ft 163 kts
2026-04-26 19:35 3.52259 -76.38507 3393 ft 153 kts
2026-04-26 19:36 3.53202 -76.38363 3172 ft 126 kts
2026-04-26 19:36 3.53771 -76.38277 3161 ft 122 kts
2026-04-26 19:36 3.54431 -76.38157 3158 ft 44 kts
2026-04-26 19:36 3.54589 -76.38161 3159 ft 12 kts 302°
2026-04-26 19:37 3.54587 -76.38271 3159 ft 14 kts 222°
2026-04-26 19:37 3.54465 -76.38303 3159 ft 24 kts 189°
2026-04-26 19:37 3.54267 -76.38336 3160 ft 31 kts 189°
2026-04-26 19:37 3.54076 -76.38381 3159 ft 19 kts 220°
2026-04-26 19:38 3.53971 -76.38482 3158 ft 23 kts 218°
2026-04-26 19:38 3.53836 -76.38581 3157 ft 23 kts 207°
2026-04-26 19:38 3.53825 -76.38585 3157 ft 0 kts 187°